Latest Weather Observations for Swanbourne

IDW60901

Issued at 4:15 pm WST Wednesday 23 April 2014 (issued every 10 minutes, with the page automatically refreshed every 10 minutes)

About weather observations | Map of Perth area stations | Latest observations for Perth area | Other Formats
Station Details ID: 009215 Name: SWANBOURNE Lat: -31.96 Lon: 115.76 Height: 40.96 m
Data from the previous 72 hours. | See also: Recent months at Swanbourne
Date/Time
WST
Tmp

°C
App
Tmp
°C
Dew
Point
°C
Rel
Hum
%
Delta-T

°C
Wind Press
QNH
hPa
Press
MSL
hPa
Rain
since
9 am
mm
Dir
 
Spd
km/h
Gust
km/h
Spd
kts
Gust
kts
23/04:00pm 21.8 18.9 13.9 61 4.6 SSW 22 32 12 17 - - 0.0
23/03:30pm 22.3 19.2 13.4 57 5.1 SSW 22 32 12 17 - - 0.0
23/03:00pm 21.9 18.9 12.5 55 5.3 SSW 20 32 11 17 - - 0.0
23/02:30pm 23.0 19.0 10.4 45 6.9 SSW 22 32 12 17 - - 0.0
23/02:00pm 22.8 18.5 10.6 46 6.7 SSW 24 32 13 17 - - 0.0
23/01:30pm 23.3 20.7 10.7 45 7.0 SSW 15 28 8 15 - - 0.0
23/01:00pm 23.5 19.9 10.6 44 7.1 SSW 20 30 11 16 - - 0.0
23/12:30pm 22.2 18.5 10.0 46 6.6 SSW 20 30 11 16 - - 0.0
23/12:00pm 23.1 20.8 10.5 45 6.9 SSW 13 22 7 12 - - 0.0
23/11:30am 23.4 20.8 7.9 37 8.2 SSE 11 20 6 11 - - 0.0
23/11:00am 22.2 19.2 7.6 39 7.6 SE 13 22 7 12 - - 0.0
23/10:30am 22.0 19.2 8.5 42 7.1 SE 13 22 7 12 - - 0.0
23/10:00am 20.8 17.6 8.4 45 6.5 SE 15 24 8 13 - - 0.0
23/09:30am 19.0 16.2 8.4 50 5.5 ESE 13 20 7 11 - - 0.0
23/09:00am 17.4 14.5 8.3 55 4.7 ESE 13 22 7 12 - - 0.0
23/08:30am 16.4 14.0 8.6 60 4.0 ESE 11 17 6 9 - - 0.0
23/08:00am 14.5 12.0 8.2 66 3.2 ESE 11 17 6 9 - - 0.0
23/07:30am 12.4 9.6 8.7 78 1.8 ESE 13 15 7 8 - - 0.0
23/07:00am 11.8 9.4 8.5 80 1.6 ESE 11 13 6 7 - - 0.0
23/06:30am 11.9 9.1 8.4 79 1.7 ESE 13 17 7 9 - - 0.0
23/06:00am 11.7 9.2 8.2 79 1.7 ESE 11 15 6 8 - - 0.0
23/05:30am 12.1 9.6 8.2 77 1.9 ESE 11 15 6 8 - - 0.0
23/05:00am 12.6 9.7 8.1 74 2.2 ESE 13 17 7 9 - - 0.0
23/04:30am 12.8 10.3 8.1 73 2.3 SE 11 17 6 9 - - 0.0
23/04:00am 12.8 10.3 8.3 74 2.2 SE 11 15 6 8 - - 0.0
23/03:30am 13.1 10.6 8.0 71 2.5 SE 11 15 6 8 - - 0.0
23/03:00am 13.8 10.9 8.2 69 2.8 SE 13 19 7 10 - - 0.0
23/02:30am 14.1 11.6 8.1 67 3.0 SE 11 17 6 9 - - 0.0
23/02:00am 14.8 12.4 8.5 66 3.2 SSE 11 20 6 11 - - 0.0
23/01:30am 15.5 12.3 8.5 63 3.6 SSE 15 32 8 17 - - 0.0
23/01:00am 15.5 12.0 8.7 64 3.5 S 17 24 9 13 - - 0.0
23/12:30am 15.4 12.3 8.9 65 3.3 SSE 15 24 8 13 - - 0.0
23/12:00am 15.5 12.9 9.2 66 3.2 SSE 13 22 7 12 - - 0.0
 
Date/Time
WST
Tmp

°C
App
Tmp
°C
Dew
Point
°C
Rel
Hum
%
Delta-T

°C
Wind Press
QNH
hPa
Press
MSL
hPa
Rain
since
9 am
mm
Dir
 
Spd
km/h
Gust
km/h
Spd
kts
Gust
kts
22/11:30pm 15.7 12.8 9.8 68 3.1 SSE 15 26 8 14 - - 0.0
22/11:00pm 15.6 13.5 9.9 69 3.0 SSE 11 19 6 10 - - 0.0
22/10:30pm 15.8 13.3 9.7 67 3.2 SSE 13 19 7 10 - - 0.0
22/10:00pm 16.0 13.5 9.7 66 3.3 SSE 13 19 7 10 - - 0.0
22/09:30pm 16.1 13.5 9.5 65 3.4 SSE 13 19 7 10 - - 0.0
22/09:00pm 16.1 14.3 9.5 65 3.4 SSE 9 15 5 8 - - 0.0
22/08:30pm 16.4 14.3 9.8 65 3.5 SSE 11 15 6 8 - - 0.0
22/08:00pm 17.0 14.9 9.7 62 3.8 S 11 17 6 9 - - 0.0
22/07:30pm 17.4 14.9 9.8 61 4.0 S 13 22 7 12 - - 0.0
22/07:00pm 17.5 14.4 8.9 57 4.5 S 15 24 8 13 - - 0.0
22/06:30pm 17.4 14.5 8.3 55 4.7 S 13 20 7 11 - - 0.0
22/06:00pm 18.1 14.5 8.4 53 5.0 S 17 24 9 13 - - 0.0
22/05:30pm 18.9 15.2 8.0 49 5.6 S 17 24 9 13 - - 0.0
22/05:00pm 19.9 15.6 7.9 46 6.2 SSW 20 28 11 15 - - 0.0
22/04:30pm 20.6 16.6 8.3 45 6.4 SSW 19 28 10 15 - - 0.0
22/04:00pm 21.1 17.1 9.0 46 6.4 SSW 20 30 11 16 - - 0.0
22/03:30pm 21.2 17.1 8.5 44 6.7 SSW 20 30 11 16 - - 0.0
22/03:00pm 21.4 17.9 10.3 49 6.0 SSW 19 30 10 16 - - 0.0
22/02:30pm 21.1 17.6 10.3 50 5.9 SSW 19 28 10 15 - - 0.0
22/02:00pm 21.1 17.5 9.7 48 6.1 SW 19 26 10 14 - - 0.0
22/01:30pm 21.8 18.8 9.3 45 6.7 SW 15 22 8 12 - - 0.0
22/01:00pm 20.6 17.1 8.9 47 6.2 SW 17 22 9 12 - - 0.0
22/12:30pm 20.5 17.3 8.5 46 6.3 SW 15 20 8 11 - - 0.0
22/12:00pm 20.9 18.8 9.8 49 6.0 WSW 11 19 6 10 - - 0.0
22/11:30am 20.5 18.2 9.1 48 6.0 SW 11 19 6 10 - - 0.0
22/11:00am 19.6 17.3 8.9 50 5.6 WSW 11 17 6 9 - - 0.0
22/10:30am 19.4 17.8 8.7 50 5.6 WSW 7 15 4 8 - - 0.0
22/10:00am 19.3 17.4 6.8 44 6.3 WSW 6 9 3 5 - - 0.0
22/09:30am 18.8 17.5 6.0 43 6.3 ESE 2 7 1 4 - - 0.0
22/09:00am 17.3 15.2 5.6 46 5.7 ENE 6 9 3 5 - - 0.0
22/08:30am 15.9 12.9 6.1 52 4.8 E 11 19 6 10 - - 0.0
22/08:00am 14.3 11.0 6.2 58 3.9 E 13 19 7 10 - - 0.0
22/07:30am 12.4 8.6 6.0 65 3.0 E 15 22 8 12 - - 0.0
22/07:00am 10.1 6.4 6.3 77 1.8 E 15 19 8 10 - - 0.0
22/06:30am 8.8 6.2 6.3 84 1.2 E 9 11 5 6 - - 0.0
22/06:00am 9.8 8.1 7.6 86 1.1 E 6 7 3 4 - - 0.0
22/05:30am 10.2 9.0 8.0 86 1.1 E 4 6 2 3 - - 0.0
22/05:00am 10.2 8.4 7.3 82 1.4 ESE 6 7 3 4 - - 0.0
22/04:30am 11.0 8.9 8.1 82 1.4 ESE 9 11 5 6 - - 0.0
22/04:00am 11.1 9.1 8.8 86 1.1 SE 9 11 5 6 - - 0.0
22/03:30am 11.4 9.4 8.8 84 1.3 SE 9 13 5 7 - - 0.0
22/03:00am 11.8 9.8 8.8 82 1.5 SE 9 13 5 7 - - 0.0
22/02:30am 12.1 10.2 8.9 81 1.6 SE 9 13 5 7 - - 0.0
22/02:00am 12.4 10.5 9.1 80 1.7 SE 9 11 5 6 - - 0.0
22/01:30am 12.8 11.0 9.3 79 1.8 SE 9 11 5 6 - - 0.0
22/01:00am 13.3 11.4 9.2 76 2.1 SE 9 11 5 6 - - 0.0
22/12:30am 13.7 11.9 9.6 76 2.1 SE 9 11 5 6 - - 0.0
22/12:00am 13.8 12.0 9.5 75 2.2 ESE 9 11 5 6 - - 0.0
 
Date/Time
WST
Tmp

°C
App
Tmp
°C
Dew
Point
°C
Rel
Hum
%
Delta-T

°C
Wind Press
QNH
hPa
Press
MSL
hPa
Rain
since
9 am
mm
Dir
 
Spd
km/h
Gust
km/h
Spd
kts
Gust
kts
21/11:30pm 14.3 12.8 9.1 71 2.7 SE 7 11 4 6 - - 0.0
21/11:00pm 14.8 13.3 9.2 69 2.9 ESE 7 11 4 6 - - 0.0
21/10:30pm 15.6 13.1 9.7 68 3.1 SSE 13 22 7 12 - - 0.0
21/10:00pm 15.9 13.4 9.6 66 3.3 SSE 13 22 7 12 - - 0.0
21/09:30pm 16.3 13.8 9.7 65 3.5 SSE 13 22 7 12 - - 0.0
21/09:00pm 16.6 13.7 9.8 64 3.6 SSE 15 24 8 13 - - 0.0
21/08:30pm 16.6 13.9 10.2 66 3.4 SSE 15 20 8 11 - - 0.0
21/08:00pm 17.0 15.1 10.4 65 3.5 S 11 15 6 8 - - 0.0
21/07:30pm 17.4 15.0 10.1 62 3.9 S 13 26 7 14 - - 0.0
21/07:00pm 17.8 14.5 9.4 58 4.4 S 17 30 9 16 - - 0.0
21/06:30pm 18.2 14.4 9.0 55 4.8 S 19 28 10 15 - - 0.0
21/06:00pm 18.5 14.6 8.5 52 5.2 SSW 19 28 10 15 - - 0.0
21/05:30pm 18.9 15.1 9.1 53 5.1 SSW 19 30 10 16 - - 0.0
21/05:00pm 19.7 16.2 10.1 54 5.2 SSW 19 30 10 16 - - 0.0
21/04:30pm 20.2 16.6 10.6 54 5.2 SW 20 32 11 17 - - 0.0
21/04:00pm 20.6 16.9 10.1 51 5.7 SW 20 32 11 17 - - 0.0
21/03:30pm 21.3 17.3 8.9 45 6.6 SW 20 28 11 15 - - 0.0
21/03:00pm 22.0 18.4 9.9 46 6.6 SW 19 28 10 15 - - 0.0
21/02:30pm 21.7 18.2 8.6 43 6.9 SW 17 28 9 15 - - 0.0
21/02:00pm 21.8 17.8 9.0 44 6.8 SW 20 28 11 15 - - 0.0
21/01:30pm 21.4 17.4 9.0 45 6.6 SW 20 26 11 14 - - 0.0
21/01:00pm 21.4 17.5 8.7 44 6.7 SW 19 26 10 14 - - 0.0
21/12:30pm 21.8 17.8 8.3 42 7.1 SW 19 28 10 15 - - 0.0
21/12:00pm 22.0 19.5 5.0 33 8.4 SE 7 13 4 7 - - 0.0
21/11:30am 22.0 18.6 5.8 35 8.1 SSE 13 22 7 12 - - 0.0
21/11:00am 21.8 19.0 6.9 38 7.6 SSE 11 17 6 9 - - 0.0
21/10:30am 20.5 17.8 7.5 43 6.7 ESE 11 20 6 11 - - 0.0
21/10:00am 20.3 17.4 8.0 45 6.4 SE 13 20 7 11 - - 0.0
21/09:30am 19.2 16.5 8.8 51 5.4 SE 13 20 7 11 - - 0.0
21/09:00am 17.5 14.2 9.4 59 4.2 SE 17 24 9 13 - - 0.0
21/08:30am 16.7 14.3 9.9 64 3.6 ESE 13 19 7 10 - - 0.0
21/08:00am 15.5 13.1 10.1 70 2.8 ESE 13 22 7 12 - - 0.0
21/07:30am 13.9 11.9 10.1 78 2.0 ESE 11 15 6 8 - - 0.0
21/07:00am 13.1 11.0 9.7 80 1.7 ESE 11 17 6 9 - - 0.0
21/06:30am 13.4 10.9 9.6 78 1.9 SE 13 20 7 11 - - 0.0
21/06:00am 13.7 11.3 9.9 78 2.0 SE 13 19 7 10 - - 0.0
21/05:30am 14.0 11.9 9.8 76 2.2 SSE 11 19 6 10 - - 0.0
21/05:00am 13.7 11.6 9.9 78 2.0 SSE 11 17 6 9 - - 0.0
21/04:30am 13.8 11.4 10.0 78 2.0 SSE 13 19 7 10 - - 0.0
21/04:00am 13.8 12.1 9.8 77 2.1 SSE 9 15 5 8 - - 0.0
21/03:30am 14.1 12.1 10.1 77 2.1 SSE 11 17 6 9 - - 0.0
21/03:00am 14.1 12.5 10.1 77 2.1 SSE 9 13 5 7 - - 0.0
21/02:30am 14.3 12.7 10.3 77 2.1 SSE 9 15 5 8 - - 0.0
21/02:00am 14.4 12.5 10.6 78 2.0 SSE 11 17 6 9 - - 0.0
21/01:30am 14.6 12.7 10.6 77 2.1 SSE 11 15 6 8 - - 0.0
21/01:00am 14.9 13.1 10.7 76 2.2 S 11 19 6 10 - - 0.0
21/12:30am 15.4 12.8 10.8 74 2.4 SE 15 22 8 12 - - 0.0
21/12:00am 15.4 13.6 11.0 75 2.3 SSE 11 17 6 9 - - 0.0
 
Date/Time
WST
Tmp

°C
App
Tmp
°C
Dew
Point
°C
Rel
Hum
%
Delta-T

°C
Wind Press
QNH
hPa
Press
MSL
hPa
Rain
since
9 am
mm
Dir
 
Spd
km/h
Gust
km/h
Spd
kts
Gust
kts
20/11:30pm 15.7 13.5 10.9 73 2.6 SSE 13 20 7 11 - - 0.0
20/11:00pm 16.0 13.9 11.0 72 2.7 S 13 22 7 12 - - 0.0
20/10:30pm 16.2 14.4 10.9 71 2.8 S 11 15 6 8 - - 0.0
20/10:00pm 16.6 14.4 10.9 69 3.1 SSE 13 19 7 10 - - 0.0
20/09:30pm 17.2 15.1 11.2 68 3.2 S 13 19 7 10 - - 0.0
20/09:00pm 17.6 15.6 11.4 67 3.4 SSE 13 20 7 11 - - 0.0
20/08:30pm 18.0 16.0 11.6 66 3.5 SSE 13 22 7 12 - - 0.0
20/08:00pm 18.1 16.4 12.3 69 3.2 S 13 20 7 11 - - 0.0
20/07:30pm 18.5 16.2 12.9 70 3.1 S 17 28 9 15 - - 0.0
20/07:00pm 18.8 16.7 13.6 72 3.0 S 17 30 9 16 - - 0.0
20/06:30pm 19.1 16.4 12.8 67 3.5 S 19 30 10 16 - - 0.0
20/06:00pm 19.2 16.4 12.5 65 3.8 S 19 30 10 16 - - 0.0
20/05:30pm 19.5 16.5 12.5 64 3.9 SSW 20 35 11 19 - - 0.0
20/05:00pm 20.2 16.1 12.7 62 4.2 SSW 26 35 14 19 - - 0.0
20/04:30pm 20.4 16.3 12.6 61 4.4 SSW 26 39 14 21 - - 0.0

Latest Capital City Observations: Canberra | Sydney | Melbourne | Brisbane | Adelaide | Perth | Hobart | Darwin

Other Formats:

Comma delimited format used in spreadsheet applications
http://www.bom.gov.au/fwo/IDW60901/IDW60901.94614.axf

JavaScript Object Notation format (JSON) in row-major order
http://www.bom.gov.au/fwo/IDW60901/IDW60901.94614.json